M0UPS-13 Weather Reports


time (UTC)temp
C
wind
direction
speed
KPH
gust
KPH
rain 1hr
cm
rain 24hr
cm
rain mn
cm
humidity
%
barometer
mb
20260505193002 13 211 0.0 0.0 0.00 0.00 0.00 56 1011.7
20260505192502 14 211 0.0 0.0 0.00 0.00 0.00 56 1011.7
20260505192002 14 211 0.0 0.0 0.00 0.00 0.00 55 1011.8
20260505191502 14 214 0.0 0.0 0.00 0.00 0.00 56 1011.7
20260505191002 14 257 0.0 3.2 0.00 0.00 0.00 55 1011.7
20260505190502 14 258 1.6 3.2 0.00 0.00 0.00 54 1011.7
20260505190003 14 293 0.0 4.8 0.00 0.00 0.00 53 1011.7
20260505185502 14 36 1.6 4.8 0.00 0.00 0.00 53 1011.7
20260505185002 14 265 1.6 4.8 0.00 0.00 0.00 53 1011.7
20260505184502 14 198 0.0 3.2 0.00 0.00 0.00 53 1011.6
20260505184002 14 303 1.6 3.2 0.00 0.00 0.00 53 1011.6
20260505183502 14 259 1.6 3.2 0.00 0.00 0.00 53 1011.6
20260505183002 15 331 3.2 4.8 0.00 0.00 0.00 52 1011.5
20260505182502 14 152 4.8 6.4 0.00 0.00 0.00 52 1011.6
20260505182002 15 188 3.2 3.2 0.00 0.00 0.00 52 1011.6
20260505181502 15 217 1.6 3.2 0.00 0.00 0.00 52 1011.6
20260505181002 15 236 1.6 3.2 0.00 0.00 0.00 52 1011.6
20260505180503 15 185 3.2 6.4 0.00 0.00 0.00 52 1011.6
20260505180002 15 234 1.6 4.8 0.00 0.00 0.00 52 1011.6
20260505175502 15 325 1.6 6.4 0.00 0.00 0.00 52 1011.5
20260505175002 15 226 1.6 6.4 0.00 0.00 0.00 51 1011.6
20260505174502 15 94 0.0 6.4 0.00 0.00 0.00 51 1011.6
20260505174002 15 232 1.6 3.2 0.00 0.00 0.00 51 1011.6
20260505173502 15 336 1.6 6.4 0.00 0.00 0.00 50 1011.7
20260505173002 15 53 4.8 6.4 0.00 0.00 0.00 50 1011.6
20260505172502 15 79 4.8 8.0 0.00 0.00 0.00 49 1011.7
20260505172002 15 154 3.2 6.4 0.00 0.00 0.00 49 1011.6
20260505171502 15 122 3.2 6.4 0.00 0.00 0.00 49 1011.6
20260505171002 15 324 1.6 6.4 0.00 0.00 0.00 49 1011.6
20260505170502 15 199 3.2 4.8 0.00 0.00 0.00 49 1011.7
20260505170002 16 290 1.6 4.8 0.00 0.00 0.00 49 1011.6
20260505165502 16 232 3.2 4.8 0.00 0.00 0.00 49 1011.7
20260505165002 16 259 1.6 6.4 0.00 0.00 0.00 50 1011.6
20260505164502 16 253 0.0 3.2 0.00 0.00 0.00 50 1011.7
20260505164002 16 31 3.2 6.4 0.00 0.00 0.00 48 1011.5
20260505163504 16 249 1.6 4.8 0.00 0.00 0.00 51 1011.6
20260505163002 16 44 1.6 4.8 0.00 0.00 0.00 49 1011.5
20260505162502 16 228 1.6 3.2 0.00 0.00 0.00 49 1011.5
20260505162002 16 97 1.6 6.4 0.00 0.00 0.00 49 1011.7
20260505161502 16 309 1.6 4.8 0.00 0.00 0.00 49 1011.7
20260505161002 16 118 4.8 6.4 0.00 0.00 0.00 47 1011.7
20260505160502 16 204 1.6 6.4 0.00 0.00 0.00 48 1011.5
20260505153002 16 66 0.0 4.8 0.00 0.00 0.00 49 1011.8
20260505152503 16 233 1.6 4.8 0.00 0.00 0.00 48 1011.7
20260505152002 16 350 3.2 4.8 0.00 0.00 0.00 48 1011.8
20260505151502 16 300 1.6 3.2 0.00 0.00 0.00 49 1011.7
20260505151002 16 248 0.0 8.0 0.00 0.00 0.00 49 1011.7
20260505150502 16 249 0.0 9.7 0.00 0.00 0.00 50 1011.8
20260505140502 16 216 1.6 3.2 0.00 0.00 0.00 50 1012.0
20260505125002 17 117 3.2 4.8 0.00 0.00 0.00 48 1012.2
20260505124502 17 280 3.2 6.4 0.00 0.00 0.00 49 1012.3
20260505124002 17 290 0.0 4.8 0.00 0.00 0.00 52 1012.4
20260505123502 17 247 1.6 4.8 0.00 0.00 0.00 50 1012.2
20260505123002 17 270 1.6 8.0 0.00 0.00 0.00 50 1012.3
20260505122503 17 264 0.0 3.2 0.00 0.00 0.00 50 1012.3
20260505122003 16 280 1.6 6.4 0.00 0.00 0.00 50 1012.2
20260505121502 16 257 0.0 3.2 0.00 0.00 0.00 52 1012.3
20260505121002 16 27 4.8 9.7 0.00 0.00 0.00 49 1012.3
20260505120502 17 86 8.0 14.5 0.00 0.00 0.00 47 1012.5
20260505120002 17 323 1.6 3.2 0.00 0.00 0.00 50 1012.3
20260505115502 17 105 4.8 6.4 0.00 0.00 0.00 50 1012.3
20260505115002 17 98 4.8 8.0 0.00 0.00 0.00 50 1012.3
20260505114502 17 195 3.2 6.4 0.00 0.00 0.00 51 1012.5
20260505114002 17 353 3.2 3.2 0.00 0.00 0.00 49 1012.2
20260505113502 17 110 1.6 9.7 0.00 0.00 0.00 49 1012.4
20260505113002 16 261 1.6 6.4 0.00 0.00 0.00 51 1012.6
20260505112502 17 182 1.6 6.4 0.00 0.00 0.00 48 1012.4
20260505112002 17 71 4.8 9.7 0.00 0.00 0.00 48 1012.5
20260505111502 17 286 0.0 8.0 0.00 0.00 0.00 52 1012.4
20260505111002 17 242 0.0 6.4 0.00 0.00 0.00 52 1012.6
20260505110502 17 276 4.8 6.4 0.00 0.00 0.00 50 1012.6
20260505102002 16 263 1.6 4.8 0.00 0.00 0.00 58 1013.0
20260505101503 16 304 1.6 6.4 0.00 0.00 0.00 57 1013.0
20260505101002 16 286 0.0 6.4 0.00 0.00 0.00 59 1013.1
20260505100502 17 288 3.2 8.0 0.00 0.00 0.00 53 1013.3
20260505100002 17 270 1.6 3.2 0.00 0.00 0.00 56 1013.0
20260505095502 16 240 1.6 6.4 0.00 0.00 0.00 59 1013.4
20260505095002 15 270 0.0 4.8 0.00 0.00 0.00 62 1013.1
20260505094502 16 80 3.2 6.4 0.00 0.00 0.00 60 1013.3
20260505094002 16 262 1.6 6.4 0.00 0.00 0.00 59 1013.3
20260505093502 16 273 3.2 4.8 0.00 0.00 0.00 63 1013.4
20260505093002 15 260 1.6 6.4 0.00 0.00 0.00 63 1013.2
20260505092502 15 54 3.2 6.4 0.00 0.00 0.00 63 1013.3
20260505092002 14 251 1.6 3.2 0.00 0.00 0.00 68 1013.2
20260505091502 14 232 1.6 4.8 0.00 0.00 0.00 68 1013.5
20260505091002 14 280 1.6 6.4 0.00 0.00 0.00 67 1013.4
20260505090502 14 63 3.2 9.7 0.00 0.00 0.00 65 1013.4
20260505090002 13 285 1.6 3.2 0.00 0.00 0.00 69 1013.5
20260505085502 13 241 0.0 3.2 0.00 0.00 0.00 69 1013.5
20260505085002 13 195 3.2 8.0 0.00 0.00 0.00 69 1013.6
20260505084502 13 37 4.8 8.0 0.00 0.00 0.00 70 1013.6
20260505084002 12 26 3.2 8.0 0.00 0.00 0.00 72 1013.6
20260505083502 12 340 1.6 8.0 0.00 0.00 0.00 71 1013.8
20260505083002 13 30 3.2 4.8 0.00 0.00 0.00 71 1013.5
20260505082502 13 253 1.6 4.8 0.00 0.00 0.00 71 1013.6
20260505082002 13 270 0.0 3.2 0.00 0.00 0.00 71 1013.5
20260505081502 13 260 0.0 3.2 0.00 0.00 0.00 72 1013.8
20260505081002 13 102 1.6 4.8 0.00 0.00 0.00 73 1013.7
20260505080502 13 284 0.0 4.8 0.00 0.00 0.00 73 1013.5
20260505080002 12 274 0.0 3.2 0.00 0.00 0.00 75 1013.5
20260505075502 12 356 3.2 6.4 0.00 0.00 0.00 74 1013.5
20260505075002 12 77 3.2 4.8 0.00 0.00 0.00 75 1013.5
20260505074502 12 270 1.6 8.0 0.00 0.00 0.00 74 1013.4
20260505074002 12 265 1.6 4.8 0.00 0.00 0.00 76 1013.3
20260505073502 12 285 0.0 3.2 0.00 0.00 0.00 76 1013.4
20260505073002 12 277 1.6 4.8 0.00 0.00 0.00 76 1013.3
20260505072503 13 264 1.6 3.2 0.00 0.00 0.00 76 1013.5
20260505072002 13 258 0.0 0.0 0.00 0.00 0.00 76 1013.4
20260505071502 12 279 1.6 4.8 0.00 0.00 0.00 76 1013.4
20260505071002 12 276 0.0 3.2 0.00 0.00 0.00 77 1013.5
20260505070502 12 285 0.0 8.0 0.00 0.00 0.00 77 1013.6
20260505070002 12 325 4.8 6.4 0.00 0.00 0.00 77 1013.6
20260505065502 12 234 0.0 3.2 0.00 0.00 0.00 77 1013.6
20260505065002 12 231 1.6 4.8 0.00 0.00 0.00 79 1013.8
20260505064502 12 285 0.0 0.0 0.00 0.00 0.00 79 1013.6
20260505064002 12 286 0.0 0.0 0.00 0.00 0.00 79 1013.7
20260505063503 12 230 0.0 3.2 0.00 0.00 0.00 80 1013.7
20260505063002 12 249 0.0 0.0 0.00 0.00 0.00 79 1013.6
20260505062502 12 330 1.6 6.4 0.00 0.00 0.00 79 1013.6
20260505062002 12 344 1.6 4.8 0.00 0.00 0.00 80 1013.8
20260505061502 12 295 0.0 4.8 0.00 0.00 0.00 81 1013.7
20260505061002 12 290 1.6 4.8 0.00 0.00 0.00 82 1013.7
20260505060503 12 40 3.2 6.4 0.00 0.00 0.00 83 1013.6
20260505060002 11 316 1.6 3.2 0.00 0.00 0.00 84 1013.5
20260505055502 11 81 0.0 4.8 0.00 0.00 0.00 84 1013.7
20260505055003 11 311 0.0 3.2 0.00 0.00 0.00 84 1013.6
20260505054502 11 308 0.0 3.2 0.00 0.00 0.00 84 1013.8
20260505054002 11 301 0.0 3.2 0.00 0.00 0.00 85 1013.5
20260505053502 11 305 3.2 4.8 0.00 0.00 0.00 85 1013.8
20260505053002 11 302 0.0 3.2 0.00 0.00 0.00 85 1013.7
20260505052502 11 329 0.0 3.2 0.00 0.00 0.00 85 1013.8
20260505052002 11 298 0.0 4.8 0.00 0.00 0.00 85 1013.8
20260505051502 11 304 1.6 3.2 0.00 0.00 0.00 85 1013.8
20260505051003 11 300 0.0 3.2 0.00 0.00 0.00 85 1013.6
20260505050502 11 310 1.6 4.8 0.00 0.00 0.00 85 1013.7
20260505041502 11 254 1.6 3.2 0.00 0.00 0.00 87 1013.8
20260505041002 11 293 0.0 0.0 0.00 0.00 0.00 87 1013.8
20260505040502 11 267 1.6 3.2 0.00 0.00 0.00 87 1013.7
20260505040003 11 299 0.0 0.0 0.00 0.00 0.00 87 1013.8
20260505035502 11 265 1.6 3.2 0.00 0.00 0.00 87 1013.7
20260505035002 11 211 0.0 4.8 0.00 0.00 0.00 87 1013.8
20260505034502 11 206 1.6 4.8 0.00 0.00 0.00 87 1013.8
20260505034002 11 322 1.6 6.4 0.00 0.00 0.00 87 1013.8
20260505033502 11 309 1.6 3.2 0.00 0.00 0.00 87 1013.8
20260505033002 11 210 1.6 4.8 0.00 0.00 0.00 86 1013.8
20260505032502 11 219 1.6 8.0 0.00 0.00 0.00 86 1013.7
20260505032002 11 327 1.6 6.4 0.00 0.00 0.00 86 1013.7
20260505031502 11 271 1.6 4.8 0.00 0.00 0.00 87 1013.8
20260505031002 11 303 0.0 3.2 0.00 0.00 0.00 87 1013.8
20260505030502 11 343 3.2 4.8 0.00 0.00 0.00 87 1013.9
20260505030002 11 321 1.6 3.2 0.00 0.00 0.00 87 1013.9
20260505025502 11 308 1.6 4.8 0.00 0.00 0.00 88 1013.8
20260505025002 11 199 1.6 4.8 0.00 0.00 0.00 88 1013.9
20260505024503 11 300 0.0 3.2 0.00 0.00 0.00 88 1013.9
20260505024002 11 228 0.0 6.4 0.00 0.00 0.00 87 1013.8
20260505023502 11 192 3.2 6.4 0.00 0.00 0.00 87 1014.0
20260505023003 11 340 3.2 6.4 0.00 0.00 0.00 86 1013.8
20260505022502 11 229 0.0 0.0 0.00 0.00 0.00 86 1013.9
20260505022002 11 259 0.0 0.0 0.00 0.00 0.00 86 1013.8
20260505021502 11 212 1.6 4.8 0.00 0.00 0.00 86 1014.0
20260505021002 11 325 3.2 4.8 0.00 0.00 0.00 86 1014.0
20260505020502 11 216 0.0 3.2 0.00 0.00 0.00 86 1014.2
20260505020002 11 212 3.2 4.8 0.00 0.00 0.00 86 1014.1
20260505015502 11 217 0.0 4.8 0.00 0.00 0.00 86 1013.9
20260505015002 11 302 1.6 3.2 0.00 0.00 0.00 86 1014.1
20260505014502 11 108 1.6 4.8 0.00 0.00 0.00 86 1014.1
20260505014002 11 346 4.8 6.4 0.00 0.00 0.00 86 1014.2
20260505013502 11 61 4.8 6.4 0.00 0.00 0.00 85 1014.3
20260505013002 12 131 4.8 6.4 0.00 0.00 0.00 85 1014.2
20260505012502 12 0 4.8 6.4 0.00 0.00 0.00 85 1014.1
20260505012002 12 47 4.8 8.0 0.00 0.00 0.00 85 1014.3
20260505011502 12 38 8.0 11.3 0.00 0.00 0.00 85 1014.4
20260505011002 12 298 1.6 3.2 0.00 0.00 0.00 85 1014.4
20260505010502 12 5 4.8 6.4 0.00 0.00 0.00 85 1014.4
20260505010003 12 259 3.2 4.8 0.00 0.00 0.00 85 1014.4
20260505005502 12 48 3.2 6.4 0.00 0.00 0.00 85 1014.5
20260505005002 12 100 3.2 9.7 0.00 0.00 0.00 85 1014.6
20260505004502 12 109 6.4 8.0 0.00 0.00 0.00 85 1014.6
20260505004002 12 75 6.4 8.0 0.00 0.00 0.00 85 1014.5
20260505003502 12 213 0.0 6.4 0.00 0.00 0.00 85 1014.6
20260505003002 12 258 3.2 4.8 0.00 0.00 0.00 85 1014.6
20260505002502 12 217 1.6 4.8 0.00 0.00 0.00 85 1014.5
20260505002003 12 171 1.6 4.8 0.00 0.00 0.00 85 1014.4
20260505001502 12 288 0.0 4.8 0.00 0.00 0.00 85 1014.6
20260505001002 12 292 1.6 6.4 0.00 0.00 0.00 85 1014.5
20260505000502 12 195 1.6 8.0 0.00 0.00 0.00 84 1014.9
20260505000003 12 209 1.6 4.8 0.00 0.00 0.00 84 1014.6
20260504235502 13 95 1.6 8.0 0.00 0.00 0.00 82 1014.5
20260504235002 13 267 0.0 4.8 0.00 0.00 0.00 79 1014.5
20260504234502 13 289 4.8 6.4 0.00 0.00 0.00 78 1014.7
20260504234002 13 318 1.6 6.4 0.00 0.00 0.00 78 1014.5
20260504233502 13 343 1.6 4.8 0.00 0.00 0.00 78 1014.6
20260504233002 13 22 3.2 4.8 0.00 0.00 0.00 77 1014.6
20260504232502 13 39 3.2 4.8 0.00 0.00 0.00 77 1014.7
20260504232003 13 334 4.8 6.4 0.00 0.00 0.00 77 1014.7
20260504231503 13 5 3.2 4.8 0.00 0.00 0.00 77 1014.6
20260504231002 13 2 1.6 6.4 0.00 0.00 0.00 77 1014.9
20260504230502 13 301 0.0 8.0 0.00 0.00 0.00 77 1014.9
20260504230002 13 293 1.6 3.2 0.00 0.00 0.00 77 1015.0
20260504225502 13 296 3.2 6.4 0.00 0.00 0.00 77 1015.0
20260504225002 13 329 1.6 4.8 0.00 0.00 0.00 78 1014.9
20260504224502 13 299 0.0 0.0 0.00 0.00 0.00 78 1014.6
20260504224002 13 303 0.0 4.8 0.00 0.00 0.00 78 1014.7
20260504223502 13 290 0.0 0.0 0.00 0.00 0.00 78 1015.0
20260504223002 13 254 0.0 0.0 0.00 0.00 0.00 78 1014.9
20260504222502 13 252 0.0 0.0 0.00 0.00 0.00 78 1015.0
20260504222002 13 246 0.0 0.0 0.00 0.00 0.00 78 1015.1
20260504221502 13 243 0.0 3.2 0.00 0.00 0.00 78 1014.9
20260504221002 13 245 1.6 4.8 0.00 0.00 0.00 78 1014.9
20260504220502 13 277 0.0 3.2 0.00 0.00 0.00 78 1015.0
20260504220002 13 295 1.6 4.8 0.00 0.00 0.00 78 1015.0
20260504215502 13 290 0.0 6.4 0.00 0.00 0.00 78 1015.0
20260504215002 13 256 1.6 3.2 0.00 0.00 0.00 79 1014.7
20260504214502 13 304 1.6 6.4 0.00 0.00 0.00 80 1015.1
20260504214002 13 56 0.0 0.0 0.00 0.00 0.00 81 1015.1
20260504213502 13 80 0.0 6.4 0.00 0.00 0.00 81 1015.0
20260504213002 13 204 1.6 4.8 0.00 0.00 0.00 81 1014.9
20260504212502 13 235 1.6 3.2 0.00 0.00 0.00 81 1014.7
20260504212002 13 308 1.6 3.2 0.00 0.00 0.00 81 1014.7
20260504211502 13 313 1.6 4.8 0.00 0.00 0.00 81 1015.0
20260504211002 13 345 3.2 4.8 0.00 0.00 0.00 80 1014.9
20260504210502 14 213 0.0 4.8 0.00 0.00 0.00 79 1015.1
20260504210003 14 249 1.6 3.2 0.00 0.00 0.00 79 1015.1
20260504205502 14 237 1.6 4.8 0.00 0.00 0.00 79 1015.2
20260504205005 14 281 1.6 3.2 0.00 0.00 0.00 78 1015.0
20260504204502 14 200 1.6 4.8 0.00 0.00 0.00 76 1015.0
20260504204002 14 259 0.0 3.2 0.00 0.00 0.00 76 1015.0
20260504203502 14 65 4.8 4.8 0.00 0.00 0.00 76 1014.9
20260504203002 14 298 0.0 3.2 0.00 0.00 0.00 76 1015.1
20260504202502 14 330 3.2 4.8 0.00 0.00 0.00 76 1014.9
20260504202002 14 231 0.0 0.0 0.00 0.00 0.00 76 1014.9
20260504201504 14 216 1.6 6.4 0.00 0.00 0.00 76 1015.0
20260504201002 14 318 0.0 4.8 0.00 0.00 0.00 75 1014.9
20260504200502 14 50 4.8 6.4 0.00 0.00 0.00 75 1014.9
20260504200003 14 304 1.6 3.2 0.00 0.00 0.00 75 1014.9
20260504195503 14 225 0.0 3.2 0.00 0.00 0.00 76 1014.7
20260504195002 14 201 1.6 3.2 0.00 0.00 0.00 76 1014.7
20260504194502 14 219 0.0 0.0 0.00 0.00 0.00 76 1014.6
20260504194002 14 284 0.0 0.0 0.00 0.00 0.00 75 1014.6
20260504193502 14 254 1.6 3.2 0.00 0.00 0.00 75 1014.7